| time (UTC) | temp F | wind direction | speed MPH | gust MPH | rain 1hr in | rain 24hr in | rain mn in | humidity % | barometer mb |
| 20260510231656 | 67 | 286 | 16.0 | 23.0 | 0.00 | 0.00 | 0.00 | 86 | 1020.2 |
| 20260510231153 | 66 | 282 | 6.0 | 7.0 | 0.00 | 0.00 | 0.00 | 85 | 1018.1 |
| 20260510230649 | 66 | 86 | 5.0 | 6.0 | 0.00 | 0.00 | 0.00 | 85 | 1016.6 |
| 20260510230144 | 66 | 124 | 3.0 | 3.0 | 0.00 | 0.00 | 0.00 | 83 | 1015.7 |
| 20260510225641 | 67 | 48 | 5.0 | 9.0 | 0.00 | 0.00 | 0.00 | 83 | 1015.4 |
| 20260510225137 | 67 | 112 | 7.0 | 10.0 | 0.00 | 0.00 | 0.00 | 82 | 1015.2 |
| 20260510224633 | 67 | 76 | 5.0 | 7.0 | 0.00 | 0.00 | 0.00 | 82 | 1015.3 |
| 20260510224129 | 67 | 93 | 4.0 | 8.0 | 0.00 | 0.00 | 0.00 | 81 | 1015.5 |
| 20260510223627 | 67 | 75 | 8.0 | 13.0 | 0.00 | 0.00 | 0.00 | 81 | 1015.2 |
| 20260510223124 | 67 | 108 | 5.0 | 8.0 | 0.00 | 0.00 | 0.00 | 81 | 1015.7 |
| 20260510222621 | 67 | 83 | 8.0 | 11.0 | 0.00 | 0.00 | 0.00 | 81 | 1015.5 |
| 20260510222119 | 67 | 72 | 6.0 | 7.0 | 0.00 | 0.00 | 0.00 | 81 | 1015.5 |
| 20260510221618 | 67 | 64 | 5.0 | 7.0 | 0.00 | 0.00 | 0.00 | 80 | 1015.9 |
| 20260510221115 | 67 | 83 | 3.0 | 5.0 | 0.00 | 0.00 | 0.00 | 80 | 1016.1 |
| 20260510220612 | 67 | 80 | 5.0 | 8.0 | 0.00 | 0.00 | 0.00 | 80 | 1015.9 |
| 20260510220107 | 67 | 113 | 6.0 | 10.0 | 0.00 | 0.00 | 0.00 | 80 | 1015.6 |
| 20260510215605 | 67 | 84 | 9.0 | 11.0 | 0.00 | 0.00 | 0.00 | 80 | 1016.0 |
| 20260510215104 | 67 | 101 | 3.0 | 7.0 | 0.00 | 0.00 | 0.00 | 81 | 1016.1 |
| 20260510214600 | 67 | 131 | 5.0 | 6.0 | 0.00 | 0.00 | 0.00 | 81 | 1015.5 |
| 20260510214056 | 66 | 66 | 10.0 | 14.0 | 0.00 | 0.00 | 0.00 | 82 | 1014.6 |
| 20260510213553 | 66 | 55 | 15.0 | 21.0 | 0.00 | 0.00 | 0.00 | 82 | 1014.5 |
| 20260510213049 | 66 | 87 | 9.0 | 15.0 | 0.00 | 0.00 | 0.00 | 82 | 1014.8 |
| 20260510212547 | 66 | 67 | 12.0 | 18.0 | 0.00 | 0.00 | 0.00 | 81 | 1014.8 |
| 20260510212044 | 67 | 122 | 8.0 | 10.0 | 0.00 | 0.00 | 0.00 | 81 | 1016.1 |
| 20260510211540 | 67 | 99 | 9.0 | 10.0 | 0.00 | 0.00 | 0.00 | 81 | 1016.8 |
| 20260510211040 | 67 | 88 | 10.0 | 13.0 | 0.00 | 0.00 | 0.00 | 81 | 1016.1 |
| 20260510210537 | 67 | 92 | 16.0 | 21.0 | 0.00 | 0.00 | 0.00 | 81 | 1015.3 |
| 20260510210032 | 67 | 63 | 9.0 | 15.0 | 0.00 | 0.00 | 0.00 | 82 | 1016.2 |
| 20260510205531 | 67 | 50 | 8.0 | 13.0 | 0.00 | 0.00 | 0.00 | 83 | 1016.1 |
| 20260510205027 | 67 | 89 | 9.0 | 15.0 | 0.00 | 0.00 | 0.00 | 83 | 1015.7 |
| 20260510204519 | 67 | 79 | 7.0 | 9.0 | 0.00 | 0.00 | 0.00 | 83 | 1016.0 |
| 20260510204015 | 67 | 46 | 9.0 | 13.0 | 0.00 | 0.00 | 0.00 | 83 | 1016.2 |
| 20260510203512 | 68 | 83 | 9.0 | 11.0 | 0.00 | 0.00 | 0.00 | 82 | 1016.0 |
| 20260510203008 | 68 | 91 | 5.0 | 9.0 | 0.00 | 0.00 | 0.00 | 81 | 1015.6 |
| 20260510202503 | 68 | 86 | 6.0 | 8.0 | 0.00 | 0.00 | 0.00 | 81 | 1015.1 |
| 20260510202000 | 68 | 79 | 9.0 | 14.0 | 0.00 | 0.00 | 0.00 | 80 | 1015.0 |
| 20260510201457 | 69 | 60 | 12.0 | 14.0 | 0.00 | 0.00 | 0.00 | 79 | 1015.3 |
| 20260510200953 | 69 | 49 | 15.0 | 18.0 | 0.00 | 0.00 | 0.00 | 78 | 1015.8 |
| 20260510200448 | 70 | 62 | 8.0 | 11.0 | 0.00 | 0.00 | 0.00 | 77 | 1015.4 |
| 20260510195941 | 70 | 69 | 15.0 | 17.0 | 0.00 | 0.00 | 0.00 | 76 | 1015.5 |
| 20260510195439 | 71 | 93 | 14.0 | 18.0 | 0.00 | 0.00 | 0.00 | 76 | 1015.6 |
| 20260510194934 | 71 | 75 | 5.0 | 7.0 | 0.00 | 0.00 | 0.00 | 75 | 1016.1 |
| 20260510194431 | 71 | 83 | 11.0 | 14.0 | 0.00 | 0.00 | 0.00 | 75 | 1015.8 |
| 20260510193926 | 72 | 139 | 7.0 | 13.0 | 0.00 | 0.00 | 0.00 | 74 | 1016.1 |
| 20260510193421 | 72 | 72 | 16.0 | 21.0 | 0.00 | 0.00 | 0.00 | 74 | 1015.7 |
| 20260510192917 | 73 | 48 | 2.0 | 5.0 | 0.00 | 0.00 | 0.00 | 73 | 1016.1 |
| 20260510192412 | 73 | 57 | 13.0 | 16.0 | 0.00 | 0.00 | 0.00 | 73 | 1015.5 |
| 20260510191909 | 73 | 61 | 7.0 | 11.0 | 0.00 | 0.00 | 0.00 | 74 | 1015.4 |
| 20260510191404 | 75 | 75 | 15.0 | 21.0 | 0.00 | 0.00 | 0.00 | 71 | 1015.7 |
| 20260510190902 | 75 | 82 | 7.0 | 11.0 | 0.00 | 0.00 | 0.00 | 70 | 1015.5 |
| 20260510190400 | 75 | 75 | 15.0 | 18.0 | 0.00 | 0.00 | 0.00 | 70 | 1015.4 |
| 20260510185856 | 75 | 99 | 7.0 | 9.0 | 0.00 | 0.00 | 0.00 | 71 | 1015.4 |
| 20260510185353 | 76 | 81 | 8.0 | 11.0 | 0.00 | 0.00 | 0.00 | 69 | 1015.4 |
| 20260510184850 | 75 | 66 | 7.0 | 8.0 | 0.00 | 0.00 | 0.00 | 71 | 1015.4 |
| 20260510184348 | 74 | 116 | 4.0 | 7.0 | 0.00 | 0.00 | 0.00 | 72 | 1015.4 |
| 20260510183847 | 75 | 73 | 10.0 | 11.0 | 0.00 | 0.00 | 0.00 | 72 | 1015.5 |
| 20260510183343 | 76 | 73 | 7.0 | 9.0 | 0.00 | 0.00 | 0.00 | 70 | 1015.4 |
| 20260510182838 | 74 | 57 | 0.0 | 2.0 | 0.00 | 0.00 | 0.00 | 73 | 1015.2 |
| 20260510182335 | 75 | 110 | 5.0 | 10.0 | 0.00 | 0.00 | 0.00 | 73 | 1015.2 |
| 20260510181831 | 74 | 39 | 1.0 | 2.0 | 0.00 | 0.00 | 0.00 | 73 | 1014.9 |
| 20260510181329 | 76 | 66 | 7.0 | 11.0 | 0.00 | 0.00 | 0.00 | 72 | 1014.9 |
| 20260510180825 | 77 | 69 | 9.0 | 14.0 | 0.00 | 0.00 | 0.00 | 71 | 1014.8 |
| 20260510180322 | 75 | 91 | 7.0 | 8.0 | 0.00 | 0.00 | 0.00 | 72 | 1014.9 |
| 20260510175819 | 76 | 81 | 13.0 | 17.0 | 0.00 | 0.00 | 0.00 | 72 | 1014.9 |
| 20260510175315 | 80 | 107 | 4.0 | 10.0 | 0.00 | 0.00 | 0.00 | 71 | 1015.0 |
| 20260510174811 | 80 | 88 | 3.0 | 6.0 | 0.00 | 0.00 | 0.00 | 73 | 1014.6 |
| 20260510174309 | 80 | 51 | 3.0 | 3.0 | 0.00 | 0.00 | 0.00 | 73 | 1014.8 |
| 20260510173805 | 79 | 117 | 3.0 | 5.0 | 0.00 | 0.00 | 0.00 | 74 | 1014.8 |
| 20260510173301 | 78 | 100 | 4.0 | 5.0 | 0.00 | 0.00 | 0.00 | 76 | 1014.8 |
| 20260510172756 | 78 | 138 | 2.0 | 2.0 | 0.00 | 0.00 | 0.00 | 75 | 1014.8 |
| 20260510172253 | 78 | 96 | 7.0 | 8.0 | 0.00 | 0.00 | 0.00 | 75 | 1014.9 |
| 20260510171749 | 79 | 76 | 3.0 | 5.0 | 0.00 | 0.00 | 0.00 | 75 | 1014.8 |
| 20260510171247 | 79 | 78 | 4.0 | 5.0 | 0.00 | 0.00 | 0.00 | 75 | 1014.6 |
| 20260510170744 | 81 | 164 | 4.0 | 6.0 | 0.00 | 0.00 | 0.00 | 72 | 1014.5 |
| 20260510170240 | 81 | 171 | 1.0 | 3.0 | 0.00 | 0.00 | 0.00 | 71 | 1014.2 |
| 20260510165735 | 80 | 117 | 1.0 | 1.0 | 0.00 | 0.00 | 0.00 | 73 | 1014.5 |
| 20260510165232 | 82 | 133 | 3.0 | 3.0 | 0.00 | 0.00 | 0.00 | 71 | 1014.3 |
| 20260510164729 | 82 | 92 | 2.0 | 2.0 | 0.00 | 0.00 | 0.00 | 69 | 1014.3 |
| 20260510164226 | 83 | 142 | 3.0 | 5.0 | 0.00 | 0.00 | 0.00 | 69 | 1014.1 |
| 20260510163726 | 84 | 144 | 3.0 | 6.0 | 0.00 | 0.00 | 0.00 | 68 | 1014.0 |
| 20260510163222 | 82 | 164 | 2.0 | 2.0 | 0.00 | 0.00 | 0.00 | 70 | 1013.9 |
| 20260510162722 | 82 | 128 | 0.0 | 0.0 | 0.00 | 0.00 | 0.00 | 71 | 1014.0 |
| 20260510162220 | 82 | 119 | 1.0 | 2.0 | 0.00 | 0.00 | 0.00 | 71 | 1013.9 |
| 20260510161715 | 79 | 99 | 0.0 | 0.0 | 0.00 | 0.00 | 0.00 | 74 | 1013.9 |
| 20260510161211 | 79 | 107 | 1.0 | 1.0 | 0.00 | 0.00 | 0.00 | 75 | 1013.9 |
| 20260510160709 | 79 | 105 | 3.0 | 3.0 | 0.00 | 0.00 | 0.00 | 74 | 1013.8 |
| 20260510160204 | 81 | 131 | 1.0 | 2.0 | 0.00 | 0.00 | 0.00 | 71 | 1014.0 |
| 20260510155700 | 80 | 145 | 3.0 | 5.0 | 0.00 | 0.00 | 0.00 | 71 | 1014.0 |
| 20260510155156 | 81 | 162 | 1.0 | 1.0 | 0.00 | 0.00 | 0.00 | 72 | 1013.7 |
| 20260510154652 | 79 | 129 | 1.0 | 2.0 | 0.00 | 0.00 | 0.00 | 75 | 1013.7 |
| 20260510154148 | 79 | 127 | 4.0 | 6.0 | 0.00 | 0.00 | 0.00 | 74 | 1013.6 |
| 20260510153643 | 78 | 149 | 3.0 | 6.0 | 0.00 | 0.00 | 0.00 | 76 | 1013.4 |
| 20260510153140 | 78 | 176 | 5.0 | 7.0 | 0.00 | 0.00 | 0.00 | 75 | 1013.5 |
| 20260510152636 | 77 | 172 | 6.0 | 8.0 | 0.00 | 0.00 | 0.00 | 78 | 1013.2 |
| 20260510152132 | 78 | 174 | 6.0 | 7.0 | 0.00 | 0.00 | 0.00 | 76 | 1013.3 |
| 20260510151629 | 77 | 184 | 6.0 | 9.0 | 0.00 | 0.00 | 0.00 | 76 | 1013.2 |
| 20260510151128 | 78 | 162 | 3.0 | 5.0 | 0.00 | 0.00 | 0.00 | 76 | 1012.9 |
| 20260510150627 | 77 | 161 | 1.0 | 2.0 | 0.00 | 0.00 | 0.00 | 76 | 1013.0 |
| 20260510150124 | 77 | 181 | 10.0 | 16.0 | 0.00 | 0.00 | 0.00 | 77 | 1012.9 |
| 20260510145620 | 75 | 184 | 11.0 | 15.0 | 0.00 | 0.00 | 0.00 | 79 | 1012.9 |
| 20260510145117 | 75 | 169 | 4.0 | 5.0 | 0.00 | 0.00 | 0.00 | 77 | 1012.7 |
| 20260510144613 | 75 | 165 | 13.0 | 15.0 | 0.00 | 0.00 | 0.00 | 79 | 1012.7 |
| 20260510144109 | 75 | 175 | 3.0 | 5.0 | 0.00 | 0.00 | 0.00 | 78 | 1012.7 |
| 20260510143605 | 75 | 157 | 5.0 | 8.0 | 0.00 | 0.00 | 0.00 | 79 | 1012.7 |
| 20260510143101 | 75 | 160 | 9.0 | 14.0 | 0.00 | 0.00 | 0.00 | 79 | 1013.0 |
| 20260510142558 | 75 | 142 | 4.0 | 5.0 | 0.00 | 0.00 | 0.00 | 79 | 1012.9 |
| 20260510142054 | 75 | 155 | 7.0 | 8.0 | 0.00 | 0.00 | 0.00 | 78 | 1013.0 |
| 20260510141551 | 75 | 139 | 6.0 | 10.0 | 0.00 | 0.00 | 0.00 | 79 | 1013.3 |
| 20260510141049 | 75 | 157 | 5.0 | 7.0 | 0.00 | 0.00 | 0.00 | 80 | 1013.5 |
| 20260510140545 | 73 | 168 | 4.0 | 8.0 | 0.00 | 0.00 | 0.00 | 81 | 1013.5 |
| 20260510140045 | 73 | 118 | 4.0 | 6.0 | 0.00 | 0.00 | 0.00 | 82 | 1013.4 |
| 20260510135541 | 73 | 130 | 4.0 | 5.0 | 0.00 | 0.00 | 0.00 | 81 | 1013.6 |
| 20260510135037 | 73 | 167 | 4.0 | 5.0 | 0.00 | 0.00 | 0.00 | 82 | 1013.7 |
| 20260510134534 | 73 | 146 | 6.0 | 7.0 | 0.00 | 0.00 | 0.00 | 81 | 1013.7 |
| 20260510134031 | 74 | 165 | 4.0 | 6.0 | 0.00 | 0.00 | 0.00 | 81 | 1013.8 |
| 20260510133527 | 73 | 137 | 5.0 | 6.0 | 0.00 | 0.00 | 0.00 | 82 | 1013.4 |
| 20260510133023 | 73 | 157 | 2.0 | 3.0 | 0.00 | 0.00 | 0.00 | 82 | 1013.0 |
| 20260510132520 | 73 | 157 | 2.0 | 3.0 | 0.00 | 0.00 | 0.00 | 82 | 1012.9 |
| 20260510132017 | 73 | 164 | 3.0 | 5.0 | 0.00 | 0.00 | 0.00 | 83 | 1013.0 |
| 20260510131515 | 73 | 92 | 2.0 | 2.0 | 0.00 | 0.00 | 0.00 | 84 | 1012.8 |
| 20260510131012 | 73 | 129 | 3.0 | 5.0 | 0.00 | 0.00 | 0.00 | 85 | 1013.3 |
| 20260510130508 | 73 | 96 | 5.0 | 9.0 | 0.00 | 0.00 | 0.00 | 85 | 1012.9 |
| 20260510130006 | 73 | 130 | 3.0 | 5.0 | 0.00 | 0.00 | 0.00 | 85 | 1012.9 |
| 20260510125501 | 72 | 133 | 2.0 | 2.0 | 0.00 | 0.00 | 0.00 | 86 | 1012.7 |
| 20260510124958 | 72 | 127 | 1.0 | 2.0 | 0.00 | 0.00 | 0.00 | 86 | 1012.8 |
| 20260510124454 | 71 | 119 | 3.0 | 3.0 | 0.00 | 0.00 | 0.00 | 87 | 1012.7 |
| 20260510123951 | 71 | 147 | 1.0 | 1.0 | 0.00 | 0.00 | 0.00 | 87 | 1012.5 |
| 20260510123447 | 71 | 125 | 2.0 | 3.0 | 0.00 | 0.00 | 0.00 | 88 | 1012.5 |
| 20260510122943 | 71 | 93 | 2.0 | 3.0 | 0.00 | 0.00 | 0.00 | 88 | 1012.5 |
| 20260510122438 | 71 | 138 | 5.0 | 8.0 | 0.00 | 0.00 | 0.00 | 89 | 1012.6 |
| 20260510121935 | 70 | 157 | 3.0 | 3.0 | 0.00 | 0.00 | 0.00 | 89 | 1012.6 |
| 20260510121432 | 70 | 131 | 1.0 | 2.0 | 0.00 | 0.00 | 0.00 | 89 | 1012.3 |
| 20260510120930 | 70 | 131 | 1.0 | 1.0 | 0.00 | 0.00 | 0.00 | 89 | 1012.5 |
| 20260510120427 | 70 | 72 | 0.0 | 0.0 | 0.00 | 0.00 | 0.00 | 89 | 1012.3 |
| 20260510115922 | 70 | 66 | 1.0 | 2.0 | 0.00 | 0.00 | 0.00 | 89 | 1012.2 |
| 20260510115420 | 70 | 77 | 0.0 | 1.0 | 0.00 | 0.00 | 0.00 | 89 | 1012.2 |
| 20260510114915 | 70 | 69 | 4.0 | 6.0 | 0.00 | 0.00 | 0.00 | 88 | 1012.3 |
| 20260510114413 | 70 | 132 | 1.0 | 3.0 | 0.00 | 0.00 | 0.00 | 88 | 1012.2 |
| 20260510113908 | 70 | 122 | 5.0 | 7.0 | 0.00 | 0.00 | 0.00 | 88 | 1011.9 |
| 20260510113404 | 70 | 145 | 0.0 | 1.0 | 0.00 | 0.00 | 0.00 | 88 | 1011.8 |
| 20260510112901 | 70 | 105 | 0.0 | 0.0 | 0.00 | 0.00 | 0.00 | 87 | 1011.9 |
| 20260510112358 | 71 | 123 | 0.0 | 0.0 | 0.00 | 0.00 | 0.00 | 87 | 1011.9 |
| 20260510111854 | 71 | 102 | 2.0 | 5.0 | 0.00 | 0.00 | 0.00 | 86 | 1011.6 |
| 20260510111351 | 71 | 132 | 1.0 | 2.0 | 0.00 | 0.00 | 0.00 | 86 | 1011.6 |
| 20260510110846 | 70 | 174 | 5.0 | 7.0 | 0.00 | 0.00 | 0.00 | 87 | 1011.3 |
| 20260510110343 | 70 | 70 | 3.0 | 3.0 | 0.00 | 0.00 | 0.00 | 87 | 1011.5 |
| 20260510105839 | 70 | 58 | 4.0 | 8.0 | 0.00 | 0.00 | 0.00 | 87 | 1011.2 |
| 20260510105339 | 70 | 91 | 2.0 | 2.0 | 0.00 | 0.00 | 0.00 | 86 | 1011.2 |
| 20260510104835 | 70 | 94 | 1.0 | 3.0 | 0.00 | 0.00 | 0.00 | 86 | 1011.3 |
| 20260510104332 | 70 | 93 | 4.0 | 7.0 | 0.00 | 0.00 | 0.00 | 86 | 1011.1 |
| 20260510103828 | 70 | 116 | 5.0 | 8.0 | 0.00 | 0.00 | 0.00 | 86 | 1010.9 |
| 20260510103326 | 70 | 71 | 7.0 | 9.0 | 0.00 | 0.00 | 0.00 | 87 | 1010.8 |
| 20260510102821 | 70 | 60 | 6.0 | 9.0 | 0.00 | 0.00 | 0.00 | 87 | 1010.8 |
| 20260510102317 | 70 | 110 | 4.0 | 6.0 | 0.00 | 0.00 | 0.00 | 86 | 1010.6 |
| 20260510101815 | 70 | 104 | 4.0 | 5.0 | 0.00 | 0.00 | 0.00 | 86 | 1010.4 |
| 20260510101313 | 71 | 107 | 4.0 | 6.0 | 0.00 | 0.00 | 0.00 | 86 | 1010.5 |
| 20260510100808 | 71 | 105 | 3.0 | 5.0 | 0.00 | 0.00 | 0.00 | 85 | 1010.3 |
| 20260510100307 | 72 | 98 | 5.0 | 7.0 | 0.00 | 0.00 | 0.00 | 84 | 1010.1 |
| 20260510095801 | 72 | 123 | 5.0 | 7.0 | 0.00 | 0.00 | 0.00 | 84 | 1010.0 |
| 20260510095257 | 72 | 146 | 4.0 | 6.0 | 0.00 | 0.00 | 0.00 | 83 | 1010.3 |
| 20260510094756 | 72 | 149 | 3.0 | 3.0 | 0.00 | 0.00 | 0.00 | 84 | 1010.0 |
| 20260510094252 | 72 | 115 | 7.0 | 9.0 | 0.00 | 0.00 | 0.00 | 84 | 1010.1 |
| 20260510093747 | 71 | 119 | 7.0 | 8.0 | 0.00 | 0.00 | 0.00 | 84 | 1010.1 |
| 20260510093245 | 71 | 143 | 3.0 | 5.0 | 0.00 | 0.00 | 0.00 | 84 | 1010.3 |
| 20260510092741 | 71 | 141 | 3.0 | 5.0 | 0.00 | 0.00 | 0.00 | 84 | 1010.1 |
| 20260510092237 | 71 | 121 | 4.0 | 7.0 | 0.00 | 0.00 | 0.00 | 84 | 1010.4 |
| 20260510091733 | 71 | 72 | 5.0 | 7.0 | 0.00 | 0.00 | 0.00 | 83 | 1010.0 |
| 20260510091230 | 71 | 103 | 3.0 | 5.0 | 0.00 | 0.00 | 0.00 | 83 | 1009.9 |
| 20260510090726 | 71 | 105 | 3.0 | 3.0 | 0.00 | 0.00 | 0.00 | 83 | 1009.6 |
| 20260510090224 | 71 | 113 | 3.0 | 5.0 | 0.00 | 0.00 | 0.00 | 83 | 1009.8 |
| 20260510085719 | 71 | 80 | 6.0 | 7.0 | 0.00 | 0.00 | 0.00 | 83 | 1010.0 |
| 20260510085214 | 71 | 64 | 7.0 | 9.0 | 0.00 | 0.00 | 0.00 | 82 | 1009.6 |
| 20260510084709 | 71 | 81 | 5.0 | 9.0 | 0.00 | 0.00 | 0.00 | 82 | 1009.5 |
| 20260510084207 | 71 | 73 | 5.0 | 6.0 | 0.00 | 0.00 | 0.00 | 82 | 1009.9 |
| 20260510083704 | 71 | 72 | 10.0 | 11.0 | 0.00 | 0.00 | 0.00 | 81 | 1010.1 |
| 20260510083201 | 71 | 46 | 3.0 | 5.0 | 0.00 | 0.00 | 0.00 | 81 | 1010.3 |
| 20260510082656 | 71 | 74 | 9.0 | 13.0 | 0.00 | 0.00 | 0.00 | 82 | 1010.1 |
| 20260510082152 | 71 | 64 | 10.0 | 13.0 | 0.00 | 0.00 | 0.00 | 81 | 1010.1 |
| 20260510081647 | 71 | 76 | 8.0 | 10.0 | 0.00 | 0.00 | 0.00 | 80 | 1009.6 |
| 20260510081143 | 70 | 84 | 4.0 | 5.0 | 0.00 | 0.00 | 0.00 | 82 | 1009.4 |
| 20260510080642 | 70 | 83 | 0.0 | 1.0 | 0.00 | 0.00 | 0.00 | 82 | 1009.2 |
| 20260510080140 | 69 | 65 | 0.0 | 0.0 | 0.00 | 0.00 | 0.00 | 82 | 1009.0 |
| 20260510075637 | 68 | 74 | 0.0 | 0.0 | 0.00 | 0.00 | 0.00 | 83 | 1009.2 |
| 20260510075134 | 69 | 77 | 0.0 | 0.0 | 0.00 | 0.00 | 0.00 | 83 | 1009.0 |
| 20260510074631 | 69 | 92 | 0.0 | 0.0 | 0.00 | 0.00 | 0.00 | 83 | 1009.1 |
| 20260510074126 | 68 | 103 | 0.0 | 0.0 | 0.00 | 0.00 | 0.00 | 83 | 1008.7 |
| 20260510073622 | 69 | 97 | 0.0 | 0.0 | 0.00 | 0.00 | 0.00 | 82 | 1009.0 |
| 20260510073120 | 69 | 83 | 0.0 | 0.0 | 0.00 | 0.00 | 0.00 | 81 | 1008.7 |
| 20260510072616 | 70 | 57 | 0.0 | 0.0 | 0.00 | 0.00 | 0.00 | 80 | 1008.7 |
| 20260510072113 | 70 | 48 | 0.0 | 0.0 | 0.00 | 0.00 | 0.00 | 79 | 1008.8 |
| 20260510071608 | 71 | 84 | 0.0 | 0.0 | 0.00 | 0.00 | 0.00 | 78 | 1008.9 |
| 20260510071106 | 71 | 121 | 0.0 | 0.0 | 0.00 | 0.00 | 0.00 | 78 | 1008.9 |
| 20260510070603 | 71 | 128 | 0.0 | 0.0 | 0.00 | 0.00 | 0.00 | 77 | 1008.9 |
| 20260510065556 | 72 | 122 | 0.0 | 0.0 | 0.00 | 0.00 | 0.00 | 76 | 1008.6 |
| 20260510065052 | 73 | 104 | 0.0 | 0.0 | 0.00 | 0.00 | 0.00 | 75 | 1008.7 |
| 20260510064549 | 73 | 98 | 0.0 | 0.0 | 0.00 | 0.00 | 0.00 | 74 | 1008.4 |
| 20260510064045 | 73 | 107 | 0.0 | 0.0 | 0.00 | 0.00 | 0.00 | 74 | 1008.4 |
| 20260510063543 | 73 | 127 | 0.0 | 0.0 | 0.00 | 0.00 | 0.00 | 73 | 1008.5 |
| 20260510063040 | 73 | 118 | 0.0 | 0.0 | 0.00 | 0.00 | 0.00 | 73 | 1008.6 |
| 20260510062535 | 74 | 157 | 0.0 | 0.0 | 0.00 | 0.00 | 0.00 | 72 | 1008.5 |
| 20260510062031 | 74 | 151 | 0.0 | 0.0 | 0.00 | 0.00 | 0.00 | 71 | 1008.4 |
| 20260510061527 | 74 | 149 | 0.0 | 0.0 | 0.00 | 0.00 | 0.00 | 70 | 1008.5 |
| 20260510061024 | 74 | 150 | 0.0 | 0.0 | 0.00 | 0.00 | 0.00 | 70 | 1008.5 |
| 20260510060521 | 74 | 169 | 0.0 | 1.0 | 0.00 | 0.00 | 0.00 | 69 | 1008.1 |
| 20260510060017 | 74 | 135 | 0.0 | 0.0 | 0.00 | 0.00 | 0.00 | 69 | 1008.1 |
| 20260510055513 | 74 | 150 | 0.0 | 0.0 | 0.00 | 0.00 | 0.00 | 69 | 1008.1 |
| 20260510055011 | 73 | 143 | 0.0 | 0.0 | 0.00 | 0.00 | 0.00 | 69 | 1008.1 |
| 20260510054507 | 73 | 152 | 0.0 | 0.0 | 0.00 | 0.00 | 0.00 | 69 | 1008.1 |
| 20260510054002 | 73 | 142 | 0.0 | 0.0 | 0.00 | 0.00 | 0.00 | 69 | 1008.1 |
| 20260510053457 | 73 | 144 | 0.0 | 0.0 | 0.00 | 0.00 | 0.00 | 69 | 1008.0 |
| 20260510052953 | 74 | 150 | 0.0 | 0.0 | 0.00 | 0.00 | 0.00 | 68 | 1008.0 |
| 20260510052450 | 74 | 160 | 0.0 | 0.0 | 0.00 | 0.00 | 0.00 | 68 | 1008.1 |
| 20260510051946 | 75 | 157 | 0.0 | 1.0 | 0.00 | 0.00 | 0.00 | 67 | 1007.9 |
| 20260510051442 | 74 | 170 | 0.0 | 1.0 | 0.00 | 0.00 | 0.00 | 66 | 1008.0 |
| 20260510050938 | 74 | 147 | 0.0 | 0.0 | 0.00 | 0.00 | 0.00 | 67 | 1007.8 |
| 20260510050435 | 74 | 176 | 3.0 | 7.0 | 0.00 | 0.00 | 0.00 | 66 | 1008.0 |
| 20260510045933 | 74 | 151 | 2.0 | 5.0 | 0.00 | 0.00 | 0.00 | 67 | 1007.9 |
| 20260510045430 | 74 | 147 | 3.0 | 6.0 | 0.00 | 0.00 | 0.00 | 67 | 1007.7 |
| 20260510044927 | 74 | 145 | 0.0 | 0.0 | 0.00 | 0.00 | 0.00 | 68 | 1007.8 |
| 20260510044423 | 74 | 150 | 1.0 | 3.0 | 0.00 | 0.00 | 0.00 | 68 | 1007.8 |
| 20260510043920 | 74 | 167 | 0.0 | 0.0 | 0.00 | 0.00 | 0.00 | 68 | 1007.8 |
| 20260510043416 | 74 | 166 | 0.0 | 0.0 | 0.00 | 0.00 | 0.00 | 68 | 1007.8 |
| 20260510042914 | 74 | 158 | 0.0 | 0.0 | 0.00 | 0.00 | 0.00 | 68 | 1007.9 |
| 20260510042410 | 74 | 155 | 0.0 | 0.0 | 0.00 | 0.00 | 0.00 | 68 | 1007.8 |
| 20260510041906 | 75 | 150 | 0.0 | 0.0 | 0.00 | 0.00 | 0.00 | 68 | 1007.4 |
| 20260510041403 | 75 | 176 | 0.0 | 0.0 | 0.00 | 0.00 | 0.00 | 68 | 1007.9 |
| 20260510040901 | 75 | 178 | 3.0 | 3.0 | 0.00 | 0.00 | 0.00 | 68 | 1007.6 |
| 20260510040358 | 75 | 154 | 0.0 | 2.0 | 0.00 | 0.00 | 0.00 | 68 | 1007.6 |
| 20260510035853 | 75 | 169 | 5.0 | 6.0 | 0.00 | 0.00 | 0.00 | 69 | 1007.8 |
| 20260510035349 | 75 | 171 | 0.0 | 0.0 | 0.00 | 0.00 | 0.00 | 69 | 1007.8 |
| 20260510034844 | 75 | 136 | 0.0 | 0.0 | 0.00 | 0.00 | 0.00 | 69 | 1007.7 |
| 20260510034343 | 75 | 161 | 0.0 | 0.0 | 0.00 | 0.00 | 0.00 | 69 | 1007.9 |
| 20260510033839 | 76 | 161 | 2.0 | 5.0 | 0.00 | 0.00 | 0.00 | 68 | 1007.7 |
| 20260510033336 | 76 | 137 | 0.0 | 1.0 | 0.00 | 0.00 | 0.00 | 68 | 1007.8 |
| 20260510032832 | 75 | 168 | 0.0 | 0.0 | 0.00 | 0.00 | 0.00 | 69 | 1007.8 |
| 20260510032329 | 75 | 161 | 0.0 | 1.0 | 0.00 | 0.00 | 0.00 | 69 | 1007.9 |
| 20260510031825 | 75 | 158 | 1.0 | 3.0 | 0.00 | 0.00 | 0.00 | 69 | 1007.7 |
| 20260510031321 | 76 | 169 | 2.0 | 5.0 | 0.00 | 0.00 | 0.00 | 68 | 1007.8 |
| 20260510030821 | 76 | 152 | 0.0 | 0.0 | 0.00 | 0.00 | 0.00 | 67 | 1007.8 |
| 20260510030317 | 76 | 172 | 0.0 | 2.0 | 0.00 | 0.00 | 0.00 | 67 | 1007.7 |
| 20260510025815 | 76 | 148 | 0.0 | 0.0 | 0.00 | 0.00 | 0.00 | 68 | 1007.8 |
| 20260510025312 | 76 | 162 | 0.0 | 0.0 | 0.00 | 0.00 | 0.00 | 68 | 1008.0 |
| 20260510024809 | 76 | 163 | 0.0 | 0.0 | 0.00 | 0.00 | 0.00 | 68 | 1007.8 |
| 20260510024306 | 76 | 142 | 0.0 | 0.0 | 0.00 | 0.00 | 0.00 | 67 | 1007.8 |
| 20260510023802 | 76 | 146 | 5.0 | 7.0 | 0.00 | 0.00 | 0.00 | 67 | 1007.6 |
| 20260510023258 | 77 | 151 | 6.0 | 8.0 | 0.00 | 0.00 | 0.00 | 66 | 1007.7 |
| 20260510022756 | 77 | 153 | 5.0 | 5.0 | 0.00 | 0.00 | 0.00 | 65 | 1007.6 |
| 20260510022255 | 77 | 158 | 3.0 | 6.0 | 0.00 | 0.00 | 0.00 | 65 | 1007.6 |
| 20260510021754 | 77 | 139 | 4.0 | 5.0 | 0.00 | 0.00 | 0.00 | 65 | 1007.7 |
| 20260510021253 | 78 | 174 | 4.0 | 5.0 | 0.00 | 0.00 | 0.00 | 64 | 1007.6 |
| 20260510020749 | 78 | 166 | 4.0 | 5.0 | 0.00 | 0.00 | 0.00 | 64 | 1007.7 |
| 20260510020248 | 78 | 158 | 0.0 | 0.0 | 0.00 | 0.00 | 0.00 | 64 | 1007.5 |
| 20260510015745 | 78 | 148 | 0.0 | 1.0 | 0.00 | 0.00 | 0.00 | 64 | 1007.5 |
| 20260510015241 | 78 | 141 | 3.0 | 3.0 | 0.00 | 0.00 | 0.00 | 64 | 1007.4 |
| 20260510014736 | 78 | 159 | 2.0 | 3.0 | 0.00 | 0.00 | 0.00 | 64 | 1007.1 |
| 20260510014234 | 79 | 168 | 3.0 | 5.0 | 0.00 | 0.00 | 0.00 | 63 | 1006.9 |
| 20260510013729 | 79 | 152 | 3.0 | 3.0 | 0.00 | 0.00 | 0.00 | 63 | 1007.1 |
| 20260510013225 | 79 | 130 | 0.0 | 0.0 | 0.00 | 0.00 | 0.00 | 65 | 1007.1 |
| 20260510012725 | 80 | 158 | 2.0 | 2.0 | 0.00 | 0.00 | 0.00 | 63 | 1007.1 |
| 20260510012220 | 80 | 140 | 1.0 | 1.0 | 0.00 | 0.00 | 0.00 | 63 | 1007.0 |
| 20260510011715 | 80 | 157 | 3.0 | 3.0 | 0.00 | 0.00 | 0.00 | 62 | 1006.9 |
| 20260510011211 | 82 | 143 | 2.0 | 2.0 | 0.00 | 0.00 | 0.00 | 60 | 1006.8 |
| 20260510010707 | 82 | 138 | 1.0 | 2.0 | 0.00 | 0.00 | 0.00 | 59 | 1006.7 |
| 20260510010204 | 83 | 146 | 1.0 | 1.0 | 0.00 | 0.00 | 0.00 | 58 | 1006.7 |
| 20260510005701 | 84 | 150 | 2.0 | 2.0 | 0.00 | 0.00 | 0.00 | 57 | 1006.9 |
| 20260510005157 | 84 | 150 | 2.0 | 2.0 | 0.00 | 0.00 | 0.00 | 56 | 1006.8 |
| 20260510004655 | 85 | 149 | 2.0 | 2.0 | 0.00 | 0.00 | 0.00 | 54 | 1006.5 |
| 20260510004153 | 86 | 148 | 3.0 | 3.0 | 0.00 | 0.00 | 0.00 | 53 | 1006.6 |
| 20260510003650 | 86 | 148 | 3.0 | 3.0 | 0.00 | 0.00 | 0.00 | 52 | 1006.8 |
| 20260510003146 | 87 | 122 | 1.0 | 1.0 | 0.00 | 0.00 | 0.00 | 52 | 1006.6 |
| 20260510002646 | 87 | 149 | 3.0 | 3.0 | 0.00 | 0.00 | 0.00 | 51 | 1006.7 |
| 20260510002143 | 88 | 148 | 1.0 | 2.0 | 0.00 | 0.00 | 0.00 | 51 | 1006.5 |
| 20260510001640 | 88 | 141 | 3.0 | 3.0 | 0.00 | 0.00 | 0.00 | 50 | 1006.7 |
| 20260510001139 | 88 | 134 | 3.0 | 3.0 | 0.00 | 0.00 | 0.00 | 49 | 1006.6 |
| 20260510000638 | 88 | 140 | 3.0 | 3.0 | 0.00 | 0.00 | 0.00 | 50 | 1006.7 |
| 20260510000136 | 89 | 130 | 5.0 | 6.0 | 0.00 | 0.00 | 0.00 | 47 | 1006.7 |
| 20260509235632 | 89 | 125 | 2.0 | 2.0 | 0.00 | 0.00 | 0.00 | 48 | 1006.6 |
| 20260509235129 | 89 | 134 | 2.0 | 2.0 | 0.00 | 0.00 | 0.00 | 47 | 1006.9 |
| 20260509234625 | 89 | 133 | 3.0 | 5.0 | 0.00 | 0.00 | 0.00 | 47 | 1006.6 |
| 20260509234123 | 89 | 169 | 3.0 | 3.0 | 0.00 | 0.00 | 0.00 | 46 | 1006.6 |
| 20260509233620 | 90 | 153 | 7.0 | 8.0 | 0.00 | 0.00 | 0.00 | 48 | 1007.0 |
| 20260509233117 | 89 | 159 | 2.0 | 2.0 | 0.00 | 0.00 | 0.00 | 47 | 1006.8 |
| 20260509232613 | 90 | 154 | 4.0 | 6.0 | 0.00 | 0.00 | 0.00 | 46 | 1006.8 |
| 20260509232111 | 90 | 172 | 3.0 | 3.0 | 0.00 | 0.00 | 0.00 | 47 | 1006.9 |